This demonstration page uses our WeatherBlox Daily Observations layout. Learn more.

Left ArrowRight Arrow

38.80484, -77.04692

Hourly Observations for May 6, 2021

Temp ( °F °C ) Dew Point ( °F °C ) Humidity (%) Winds ( mph kmh ) Pressure ( in mb ) Visibility ( mi km ) Precip ( " mm )
12:52 am 00:52 Mostly Clear 56 13.3 39 3.9 53 53 NNW 13 20 29.98 1015 10 16 N/A
1:52 am 01:52 Mostly Clear 55 12.8 34 1.1 45 45 NNW 17 28 29.99 1016 10 16 N/A
2:52 am 02:52 Mostly Clear 53 11.7 33 0.6 47 47 NNW 18 30 30.00 1016 10 16 N/A
3:52 am 03:52 Mostly Clear 52 11.1 33 0.6 49 49 NNW 12 19 30.01 1016 10 16 N/A
4:52 am 04:52 Mostly Clear 50 10 33 0.6 52 52 NNW 8 13 30.04 1017 10 16 N/A
5:52 am 05:52 Mostly Clear 49 9.4 34 1.1 56 56 WNW 6 9 30.04 1017 10 16 N/A
6:52 am 06:52 Mostly Sunny 50 10 34 1.1 54 54 NW 9 15 30.06 1018 10 16 N/A
7:52 am 07:52 Sunny 53 11.7 36 2.2 52 52 NNW 16 26 30.07 1018 10 16 N/A
8:52 am 08:52 Mostly Sunny 55 12.8 37 2.8 51 51 NNW 16 26 30.08 1019 10 16 N/A
9:52 am 09:52 Mostly Sunny 58 14.4 37 2.8 46 46 NNW 15 24 30.09 1019 10 16 N/A
10:52 am 10:52 Mostly Sunny 59 15 37 2.8 44 44 NW 13 20 30.08 1019 10 16 N/A
11:52 am 11:52 Sunny 62 16.7 38 3.3 41 41 NNW 14 22 30.06 1018 10 16 N/A
12:52 pm 12:52 Partly Cloudy 62 16.7 38 3.3 41 41 W 6 9 30.05 1018 10 16 N/A
1:52 pm 13:52 Mostly Cloudy 63 17.2 38 3.3 40 40 WSW 8 13 30.02 1017 10 16 N/A
2:52 pm 14:52 Mostly Cloudy 65 18.3 40 4.4 40 40 VRB 7 11 29.99 1016 10 16 N/A
3:52 pm 15:52 Mostly Cloudy 64 17.8 39 3.9 40 40 NNW 7 11 29.97 1015 10 16 N/A
4:52 pm 16:52 Mostly Cloudy 64 17.8 39 3.9 40 40 NW 7 11 29.96 1015 10 16 N/A
5:52 pm 17:52 Mostly Cloudy 64 17.8 37 2.8 37 37 NW 12 19 29.96 1015 10 16 N/A
6:52 pm 18:52 Mostly Cloudy 64 17.8 36 2.2 35 35 WNW 8 13 29.96 1014 10 16 N/A
7:52 pm 19:52 Mostly Cloudy 62 16.7 35 1.7 37 37 WSW 3 6 29.97 1015 10 16 N/A
8:52 pm 20:52 Mostly Cloudy 62 16.7 34 1.1 35 35 N N/A 29.98 1015 10 16 N/A
9:52 pm 21:52 Mostly Cloudy 59 15 41 5 51 51 S 3 6 29.98 1015 10 16 N/A
10:52 pm 22:52 Mostly Cloudy 57 13.9 40 4.4 53 53 N N/A 29.98 1015 10 16 N/A
11:52 pm 23:52 Mostly Cloudy 56 13.3 42 5.6 60 60 SW 3 6 29.97 1015 10 16 N/A

Powered by AerisWeather